Hourly Data Report for March 14, 2020

MAYO A
YUKON TERRITORY
Current Station Operator: NAVCAN

63°36'59.000" N
135°52'06.000" W
503.80 m
2100701
71965
YMA

Download Data

Hourly Data (March 2020)
Hourly Data Report for March 14, 2020
TIME
LST
Temp Definition
°C
Dew Point Definition
°C
Rel Hum Definition
%
Precip. Amount Definition
mm

Wind Dir Definition
10's deg

Wind Spd Definition
km/h
Visibility Definition
km
Stn Press Definition
kPa
Hmdx Definition


Wind Chill Definition


Weather Definition


00:00 -22.8 -25.5 79   32 3 32.2 98.06   -26 LegendNANA
01:00 -24.1 -26.6 80   36 3 32.2 98.01   -27 Clear
02:00 -24.5 -27.2 79   31 4 32.2 98.04   -28 LegendNANA
03:00 -27.2 -30.0 78   3 4 32.2 98.04   -31 LegendNANA
04:00 -27.5 -30.4 76   22 3 32.2 98.04   -31 Clear
05:00 -27.6 -30.3 78   36 2 32.2 98.03   -30 LegendNANA
06:00 -28.5 -31.4 76   32 3 32.2 98.04   -32 LegendNANA
07:00 -29.6 -32.7 75   2 3 32.2 98.01   -33 Mostly Cloudy
08:00 -29.8 -33.0 74   35 4 32.2 98.01   -34 LegendNANA
09:00 -27.6 -31.1 73   36 1 32.2 98.00   -29 LegendNANA
10:00 -24.5 -27.6 76   13 3 32.2 97.99   -27 Cloudy
11:00 -20.8 -24.0 76   36 2 32.2 97.96   -23 LegendNANA
12:00 -18.1 -22.8 67   11 7 32.2 97.85   -23 LegendNANA
13:00 -15.9 -21.8 61   8 3 32.2 97.81   -18 Cloudy
14:00 -14.7 -20.7 60   10 4 32.2 97.73   -18 LegendNANA
15:00 -12.7 -20.3 54   0 1 32.2 97.70   -13 LegendNANA
16:00 -11.3 -18.6 55   36 2 32.2 97.61   -13 Cloudy
17:00 -10.6 -17.4 58   9 4 32.2 97.54   -13 LegendNANA
18:00 -10.2 -17.5 55   9 4 32.2 97.52   -13 LegendNANA
19:00 -12.2 -17.5 65   3 3 32.2 97.55   -14 Cloudy
20:00 -11.8 -16.0 71   36 2 24.1 97.52   -13 LegendNANA
21:00 -12.3 -15.8 75   36 1 32.2 97.54   -13 LegendNANA
22:00 -11.5 -15.5 73   33 5 32.2 97.53   -15 Cloudy
23:00 -13.1 -16.1 78   7 3 32.2 97.52   -15 LegendNANA

Notes on Data Quality.

Legend

  • E = Estimated
  • M = Missing
  • NA = Not Available*
  • [empty] = Indicates an unobserved value
Date modified: